Voltar ao catálogo

QIANFAN-64

AtivoComunicaçõesPO
NORAD 62794·PAYLOAD·🇨🇳 China

Lançado Jan 23, 2025 de Taiyuan Satellite Launch Center

Loading…

Próximas Passagens (próximas 24 horas)

TLE

AtualizadoSource: Space-Track

Época: Sep 14, 2026, 21:58 UTC

1 62794U 25016K   26257.91539734  .00000034  00000-0  34690-4 0  9998
2 62794  88.9656  74.3244 0012206 262.8763  97.1000 13.51027246 84551

Acompanhe QIANFAN-64 em tempo real com AllMySat

Download on the App Store